| time (UTC) | temp F | wind direction | speed MPH | gust MPH | rain 1hr in | rain 24hr in | rain mn in | humidity % | barometer mb |
| 20260507152003 | 54 | 80 | 2.0 | 5.0 | 0.00 | 0.01 | 0.01 | 65 | 1012.2 |
| 20260507151504 | 54 | 53 | 0.0 | 2.0 | 0.00 | 0.01 | 0.01 | 63 | 1012.3 |
| 20260507151006 | 53 | 52 | 0.0 | 2.0 | 0.00 | 0.01 | 0.01 | 65 | 1012.3 |
| 20260507150504 | 53 | 47 | 0.0 | 1.0 | 0.00 | 0.01 | 0.01 | 67 | 1012.4 |
| 20260507150022 | 53 | 47 | 0.0 | 3.0 | 0.00 | 0.02 | 0.01 | 66 | 1012.4 |
| 20260507145502 | 53 | 46 | 0.0 | 3.0 | 0.00 | 0.02 | 0.01 | 66 | 1012.5 |
| 20260507145002 | 53 | 46 | 0.0 | 2.0 | 0.00 | 0.02 | 0.01 | 66 | 1012.6 |
| 20260507144506 | 52 | 46 | 0.0 | 2.0 | 0.00 | 0.02 | 0.01 | 68 | 1012.7 |
| 20260507144003 | 52 | 47 | 0.0 | 2.0 | 0.00 | 0.02 | 0.01 | 68 | 1012.9 |
| 20260507143503 | 52 | 47 | 0.0 | 3.0 | 0.00 | 0.03 | 0.01 | 67 | 1012.9 |
| 20260507143009 | 52 | 46 | 0.0 | 3.0 | 0.00 | 0.04 | 0.01 | 67 | 1012.9 |
| 20260507142506 | 52 | 40 | 0.0 | 4.0 | 0.00 | 0.04 | 0.01 | 67 | 1012.9 |
| 20260507142004 | 52 | 40 | 0.0 | 5.0 | 0.00 | 0.05 | 0.01 | 68 | 1012.8 |
| 20260507141511 | 52 | 253 | 0.0 | 5.0 | 0.00 | 0.06 | 0.01 | 68 | 1013.0 |
| 20260507141007 | 52 | 74 | 0.0 | 2.0 | 0.00 | 0.06 | 0.01 | 69 | 1013.2 |
| 20260507140507 | 52 | 70 | 0.0 | 4.0 | 0.00 | 0.06 | 0.01 | 70 | 1013.1 |
| 20260507140008 | 52 | 71 | 1.0 | 4.0 | 0.00 | 0.06 | 0.01 | 71 | 1013.1 |
| 20260507135504 | 52 | 79 | 0.0 | 3.0 | 0.00 | 0.06 | 0.01 | 72 | 1013.2 |
| 20260507135011 | 52 | 82 | 0.0 | 1.0 | 0.00 | 0.07 | 0.01 | 70 | 1013.3 |
| 20260507134509 | 52 | 80 | 0.0 | 0.0 | 0.00 | 0.07 | 0.01 | 74 | 1013.3 |
| 20260507134003 | 52 | 80 | 0.0 | 0.0 | 0.00 | 0.07 | 0.01 | 74 | 1013.4 |
| 20260507133503 | 52 | 80 | 0.0 | 3.0 | 0.00 | 0.07 | 0.01 | 70 | 1013.4 |
| 20260507133008 | 52 | 80 | 0.0 | 3.0 | 0.00 | 0.08 | 0.01 | 70 | 1013.4 |
| 20260507132502 | 52 | 52 | 0.0 | 1.0 | 0.00 | 0.08 | 0.01 | 69 | 1013.3 |
| 20260507132002 | 52 | 51 | 0.0 | 4.0 | 0.00 | 0.09 | 0.01 | 72 | 1013.3 |
| 20260507131510 | 52 | 51 | 0.0 | 4.0 | 0.00 | 0.10 | 0.01 | 72 | 1013.2 |
| 20260507131003 | 52 | 65 | 0.0 | 3.0 | 0.00 | 0.11 | 0.01 | 72 | 1013.3 |
| 20260507130507 | 52 | 64 | 0.0 | 4.0 | 0.00 | 0.11 | 0.01 | 70 | 1013.2 |
| 20260507130018 | 52 | 68 | 0.0 | 4.0 | 0.00 | 0.12 | 0.01 | 68 | 1013.2 |
| 20260507125508 | 52 | 67 | 1.0 | 6.0 | 0.00 | 0.13 | 0.01 | 69 | 1013.2 |
| 20260507125004 | 52 | 189 | 1.0 | 6.0 | 0.00 | 0.13 | 0.01 | 70 | 1013.1 |
| 20260507124515 | 52 | 51 | 0.0 | 6.0 | 0.00 | 0.13 | 0.01 | 74 | 1013.0 |
| 20260507124006 | 52 | 70 | 0.0 | 5.0 | 0.00 | 0.13 | 0.01 | 74 | 1013.2 |
| 20260507123503 | 52 | 52 | 0.0 | 3.0 | 0.00 | 0.13 | 0.01 | 77 | 1013.2 |
| 20260507123017 | 52 | 38 | 0.0 | 2.0 | 0.00 | 0.13 | 0.01 | 76 | 1013.3 |
| 20260507122504 | 52 | 20 | 0.0 | 2.0 | 0.00 | 0.13 | 0.01 | 75 | 1013.3 |
| 20260507122003 | 52 | 19 | 0.0 | 2.0 | 0.00 | 0.13 | 0.01 | 75 | 1013.2 |
| 20260507121508 | 52 | 337 | 0.0 | 2.0 | 0.00 | 0.13 | 0.01 | 77 | 1013.2 |
| 20260507121003 | 52 | 323 | 0.0 | 4.0 | 0.00 | 0.13 | 0.01 | 76 | 1013.1 |
| 20260507120503 | 52 | 46 | 0.0 | 4.0 | 0.00 | 0.13 | 0.01 | 78 | 1013.1 |
| 20260507120005 | 52 | 349 | 0.0 | 3.0 | 0.00 | 0.13 | 0.01 | 76 | 1013.1 |
| 20260507115503 | 52 | 111 | 0.0 | 3.0 | 0.00 | 0.13 | 0.01 | 80 | 1013.0 |
| 20260507115005 | 52 | 111 | 0.0 | 3.0 | 0.00 | 0.13 | 0.01 | 80 | 1013.0 |
| 20260507114520 | 52 | 122 | 0.0 | 4.0 | 0.00 | 0.13 | 0.01 | 81 | 1013.0 |
| 20260507114006 | 52 | 121 | 0.0 | 4.0 | 0.00 | 0.13 | 0.01 | 82 | 1012.8 |
| 20260507113505 | 52 | 39 | 0.0 | 5.0 | 0.00 | 0.13 | 0.01 | 83 | 1012.8 |
| 20260507113026 | 52 | 26 | 0.0 | 7.0 | 0.00 | 0.13 | 0.01 | 84 | 1012.7 |
| 20260507112504 | 52 | 236 | 0.0 | 7.0 | 0.00 | 0.13 | 0.01 | 87 | 1012.7 |
| 20260507112004 | 52 | 67 | 0.0 | 2.0 | 0.00 | 0.13 | 0.01 | 89 | 1012.4 |
| 20260507111507 | 52 | 67 | 0.0 | 2.0 | 0.00 | 0.13 | 0.01 | 89 | 1012.5 |
| 20260507111003 | 52 | 68 | 0.0 | 1.0 | 0.00 | 0.13 | 0.01 | 89 | 1012.4 |
| 20260507110502 | 52 | 68 | 0.0 | 2.0 | 0.00 | 0.13 | 0.01 | 89 | 1012.4 |
| 20260507110012 | 52 | 68 | 0.0 | 2.0 | 0.00 | 0.13 | 0.01 | 89 | 1012.3 |
| 20260507105504 | 52 | 76 | 0.0 | 0.0 | 0.00 | 0.13 | 0.01 | 89 | 1012.3 |
| 20260507105003 | 52 | 76 | 0.0 | 0.0 | 0.00 | 0.13 | 0.01 | 89 | 1012.3 |
| 20260507104516 | 52 | 76 | 0.0 | 0.0 | 0.00 | 0.13 | 0.01 | 89 | 1012.3 |
| 20260507104006 | 52 | 76 | 0.0 | 0.0 | 0.00 | 0.13 | 0.01 | 89 | 1012.1 |
| 20260507103506 | 52 | 76 | 0.0 | 0.0 | 0.00 | 0.13 | 0.01 | 89 | 1012.0 |
| 20260507103010 | 52 | 76 | 0.0 | 0.0 | 0.00 | 0.13 | 0.01 | 89 | 1012.0 |
| 20260507102506 | 52 | 76 | 0.0 | 0.0 | 0.00 | 0.13 | 0.01 | 89 | 1012.1 |
| 20260507102012 | 52 | 76 | 0.0 | 0.0 | 0.00 | 0.13 | 0.01 | 89 | 1012.0 |
| 20260507101525 | 52 | 76 | 0.0 | 0.0 | 0.00 | 0.13 | 0.01 | 89 | 1011.9 |
| 20260507101002 | 52 | 76 | 0.0 | 0.0 | 0.00 | 0.13 | 0.01 | 89 | 1011.9 |
| 20260507100506 | 52 | 76 | 0.0 | 0.0 | 0.00 | 0.13 | 0.01 | 89 | 1011.8 |
| 20260507100015 | 52 | 76 | 0.0 | 0.0 | 0.00 | 0.13 | 0.01 | 89 | 1011.9 |
| 20260507095503 | 52 | 76 | 0.0 | 0.0 | 0.00 | 0.13 | 0.01 | 90 | 1011.8 |
| 20260507095003 | 52 | 76 | 0.0 | 0.0 | 0.00 | 0.13 | 0.01 | 90 | 1011.8 |
| 20260507094518 | 52 | 76 | 0.0 | 0.0 | 0.00 | 0.13 | 0.01 | 90 | 1011.8 |
| 20260507094004 | 52 | 76 | 0.0 | 0.0 | 0.00 | 0.13 | 0.01 | 90 | 1011.8 |
| 20260507093511 | 52 | 76 | 0.0 | 0.0 | 0.00 | 0.13 | 0.01 | 90 | 1011.8 |
| 20260507093021 | 52 | 76 | 0.0 | 0.0 | 0.00 | 0.13 | 0.01 | 90 | 1011.7 |
| 20260507092507 | 52 | 76 | 0.0 | 2.0 | 0.00 | 0.13 | 0.01 | 90 | 1011.7 |
| 20260507092003 | 52 | 76 | 0.0 | 2.0 | 0.00 | 0.13 | 0.01 | 90 | 1011.6 |
| 20260507091529 | 52 | 76 | 0.0 | 2.0 | 0.00 | 0.13 | 0.01 | 90 | 1011.4 |
| 20260507091008 | 52 | 76 | 0.0 | 0.0 | 0.00 | 0.13 | 0.01 | 90 | 1011.3 |
| 20260507090507 | 53 | 77 | 0.0 | 0.0 | 0.00 | 0.13 | 0.01 | 90 | 1011.4 |
| 20260507090014 | 53 | 77 | 0.0 | 0.0 | 0.00 | 0.13 | 0.01 | 90 | 1011.4 |
| 20260507085508 | 53 | 77 | 0.0 | 0.0 | 0.00 | 0.13 | 0.01 | 90 | 1011.4 |
| 20260507085014 | 53 | 77 | 0.0 | 0.0 | 0.00 | 0.13 | 0.01 | 90 | 1011.5 |
| 20260507084534 | 53 | 77 | 0.0 | 0.0 | 0.00 | 0.13 | 0.01 | 90 | 1011.7 |
| 20260507084003 | 53 | 77 | 0.0 | 0.0 | 0.00 | 0.13 | 0.01 | 90 | 1011.5 |
| 20260507083506 | 53 | 77 | 0.0 | 1.0 | 0.00 | 0.13 | 0.01 | 90 | 1011.4 |
| 20260507083010 | 53 | 77 | 0.0 | 1.0 | 0.00 | 0.13 | 0.01 | 90 | 1011.4 |
| 20260507082504 | 53 | 76 | 0.0 | 1.0 | 0.00 | 0.13 | 0.01 | 91 | 1011.6 |
| 20260507082006 | 53 | 76 | 0.0 | 1.0 | 0.00 | 0.13 | 0.01 | 91 | 1011.6 |
| 20260507081510 | 53 | 76 | 0.0 | 1.0 | 0.00 | 0.13 | 0.01 | 90 | 1011.5 |
| 20260507081004 | 53 | 76 | 0.0 | 0.0 | 0.00 | 0.13 | 0.01 | 90 | 1011.5 |
| 20260507080504 | 53 | 76 | 0.0 | 0.0 | 0.00 | 0.13 | 0.01 | 90 | 1011.5 |
| 20260507080008 | 53 | 76 | 0.0 | 2.0 | 0.00 | 0.13 | 0.01 | 90 | 1011.3 |
| 20260507075503 | 53 | 76 | 0.0 | 2.0 | 0.00 | 0.13 | 0.01 | 89 | 1011.1 |
| 20260507075002 | 53 | 76 | 0.0 | 2.0 | 0.00 | 0.13 | 0.01 | 89 | 1011.0 |
| 20260507074512 | 53 | 76 | 0.0 | 0.0 | 0.00 | 0.13 | 0.01 | 89 | 1010.9 |
| 20260507074002 | 53 | 76 | 0.0 | 0.0 | 0.00 | 0.13 | 0.01 | 88 | 1011.1 |
| 20260507073503 | 54 | 76 | 0.0 | 0.0 | 0.00 | 0.13 | 0.01 | 88 | 1011.1 |
| 20260507073017 | 54 | 76 | 0.0 | 0.0 | 0.00 | 0.13 | 0.01 | 88 | 1011.2 |
| 20260507072503 | 54 | 76 | 0.0 | 3.0 | 0.00 | 0.13 | 0.01 | 87 | 1010.9 |
| 20260507072003 | 54 | 76 | 0.0 | 5.0 | 0.00 | 0.13 | 0.01 | 88 | 1011.0 |
| 20260507071520 | 54 | 36 | 0.0 | 9.0 | 0.00 | 0.13 | 0.01 | 88 | 1011.0 |
| 20260507071006 | 54 | 78 | 0.0 | 9.0 | 0.00 | 0.13 | 0.01 | 89 | 1011.0 |
| 20260507070503 | 54 | 42 | 0.0 | 8.0 | 0.00 | 0.13 | 0.01 | 90 | 1011.1 |
| 20260507070013 | 55 | 41 | 0.0 | 4.0 | 0.00 | 0.13 | 0.01 | 90 | 1011.1 |
| 20260507065504 | 55 | 60 | 1.0 | 4.0 | 0.00 | 0.13 | 0.01 | 91 | 1011.1 |
| 20260507065011 | 55 | 78 | 0.0 | 1.0 | 0.00 | 0.13 | 0.01 | 91 | 1011.0 |
| 20260507064511 | 55 | 78 | 0.0 | 0.0 | 0.00 | 0.13 | 0.01 | 91 | 1011.0 |
| 20260507064004 | 55 | 78 | 0.0 | 1.0 | 0.00 | 0.13 | 0.01 | 91 | 1011.1 |
| 20260507063503 | 55 | 78 | 0.0 | 1.0 | 0.00 | 0.13 | 0.01 | 91 | 1011.1 |
| 20260507063011 | 55 | 64 | 0.0 | 2.0 | 0.01 | 0.13 | 0.01 | 91 | 1011.2 |
| 20260507062502 | 55 | 64 | 0.0 | 2.0 | 0.01 | 0.13 | 0.01 | 91 | 1011.1 |
| 20260507062006 | 55 | 86 | 0.0 | 2.0 | 0.01 | 0.13 | 0.01 | 91 | 1011.2 |
| 20260507061520 | 55 | 86 | 0.0 | 2.0 | 0.01 | 0.13 | 0.01 | 90 | 1011.4 |
| 20260507061003 | 55 | 86 | 0.0 | 0.0 | 0.01 | 0.13 | 0.01 | 90 | 1011.2 |
| 20260507060503 | 55 | 86 | 0.0 | 1.0 | 0.01 | 0.13 | 0.01 | 90 | 1011.1 |
| 20260507060023 | 55 | 80 | 0.0 | 1.0 | 0.01 | 0.13 | 0.01 | 90 | 1010.8 |
| 20260507055508 | 55 | 80 | 0.0 | 2.0 | 0.01 | 0.13 | 0.01 | 90 | 1011.0 |
| 20260507055006 | 55 | 82 | 0.0 | 2.0 | 0.01 | 0.13 | 0.01 | 90 | 1010.9 |
| 20260507054520 | 56 | 84 | 0.0 | 2.0 | 0.01 | 0.13 | 0.01 | 90 | 1011.1 |
| 20260507054012 | 56 | 63 | 0.0 | 3.0 | 0.01 | 0.13 | 0.01 | 89 | 1011.1 |
| 20260507053503 | 56 | 64 | 0.0 | 3.0 | 0.01 | 0.13 | 0.01 | 89 | 1011.0 |
| 20260507053010 | 56 | 137 | 0.0 | 3.0 | 0.00 | 0.12 | 0.00 | 89 | 1011.1 |
| 20260507052504 | 56 | 158 | 0.0 | 3.0 | 0.00 | 0.12 | 0.00 | 89 | 1011.2 |
| 20260507052006 | 56 | 109 | 0.0 | 2.0 | 0.00 | 0.12 | 0.00 | 88 | 1011.1 |
| 20260507051514 | 56 | 111 | 0.0 | 2.0 | 0.00 | 0.12 | 0.00 | 88 | 1011.1 |
| 20260507051005 | 56 | 113 | 0.0 | 2.0 | 0.00 | 0.12 | 0.00 | 88 | 1011.2 |
| 20260507050506 | 56 | 67 | 0.0 | 2.0 | 0.00 | 0.12 | 0.00 | 88 | 1010.8 |
| 20260507050033 | 57 | 70 | 0.0 | 4.0 | 0.00 | 0.12 | 0.00 | 87 | 1010.5 |
| 20260507045504 | 57 | 70 | 0.0 | 5.0 | 0.00 | 0.12 | 0.00 | 86 | 1010.4 |
| 20260507045009 | 57 | 82 | 0.0 | 5.0 | 0.00 | 0.12 | 0.00 | 87 | 1010.9 |
| 20260507044526 | 57 | 93 | 0.0 | 2.0 | 0.00 | 0.12 | 0.00 | 87 | 1011.4 |
| 20260507044002 | 58 | 80 | 0.0 | 1.0 | 0.00 | 0.12 | 0.00 | 87 | 1011.4 |
| 20260507043506 | 58 | 80 | 0.0 | 4.0 | 0.00 | 0.12 | 0.00 | 86 | 1011.2 |
| 20260507043024 | 58 | 80 | 0.0 | 4.0 | 0.00 | 0.12 | 0.00 | 84 | 1010.9 |
| 20260507042504 | 58 | 80 | 0.0 | 4.0 | 0.00 | 0.12 | 0.00 | 85 | 1010.9 |
| 20260507042003 | 58 | 84 | 0.0 | 8.0 | 0.00 | 0.12 | 0.00 | 84 | 1011.4 |
| 20260507041513 | 59 | 102 | 1.0 | 8.0 | 0.00 | 0.12 | 0.00 | 84 | 1011.2 |
| 20260507041004 | 59 | 88 | 0.0 | 8.0 | 0.00 | 0.12 | 0.00 | 84 | 1011.2 |
| 20260507040505 | 59 | 53 | 0.0 | 5.0 | 0.00 | 0.12 | 0.00 | 84 | 1011.1 |
| 20260507040022 | 60 | 57 | 0.0 | 5.0 | 0.00 | 0.12 | 0.00 | 84 | 1011.0 |
| 20260507035505 | 60 | 90 | 0.0 | 2.0 | 0.00 | 0.12 | 0.12 | 84 | 1010.8 |
| 20260507035007 | 60 | 90 | 0.0 | 10.0 | 0.00 | 0.12 | 0.12 | 83 | 1010.6 |
| 20260507034520 | 60 | 90 | 0.0 | 10.0 | 0.00 | 0.12 | 0.12 | 82 | 1010.3 |
| 20260507034007 | 60 | 76 | 0.0 | 5.0 | 0.00 | 0.12 | 0.12 | 82 | 1010.4 |
| 20260507033507 | 60 | 60 | 1.0 | 5.0 | 0.00 | 0.12 | 0.12 | 83 | 1010.4 |
| 20260507033014 | 60 | 59 | 0.0 | 5.0 | 0.00 | 0.12 | 0.12 | 83 | 1010.4 |
| 20260507032505 | 61 | 76 | 1.0 | 9.0 | 0.00 | 0.12 | 0.12 | 83 | 1010.5 |
| 20260507032012 | 61 | 77 | 2.0 | 13.0 | 0.00 | 0.12 | 0.12 | 83 | 1010.3 |
| 20260507031529 | 61 | 51 | 2.0 | 13.0 | 0.00 | 0.12 | 0.12 | 83 | 1010.4 |
| 20260507031003 | 61 | 70 | 0.0 | 8.0 | 0.00 | 0.12 | 0.12 | 83 | 1010.7 |
| 20260507030504 | 61 | 323 | 0.0 | 3.0 | 0.00 | 0.12 | 0.12 | 84 | 1010.7 |
| 20260507030018 | 61 | 55 | 0.0 | 5.0 | 0.00 | 0.12 | 0.12 | 84 | 1010.5 |
| 20260507025503 | 62 | 67 | 1.0 | 5.0 | 0.00 | 0.12 | 0.12 | 85 | 1010.2 |
| 20260507025004 | 62 | 60 | 0.0 | 3.0 | 0.00 | 0.12 | 0.12 | 86 | 1009.9 |
| 20260507024521 | 62 | 57 | 0.0 | 11.0 | 0.00 | 0.12 | 0.12 | 86 | 1009.7 |
| 20260507024008 | 62 | 71 | 2.0 | 11.0 | 0.00 | 0.12 | 0.12 | 87 | 1009.5 |
| 20260507023503 | 62 | 85 | 4.0 | 8.0 | 0.00 | 0.12 | 0.12 | 88 | 1009.8 |
| 20260507023021 | 62 | 78 | 0.0 | 6.0 | 0.00 | 0.12 | 0.12 | 88 | 1010.1 |
| 20260507022511 | 62 | 65 | 0.0 | 6.0 | 0.00 | 0.12 | 0.12 | 88 | 1010.0 |
| 20260507022005 | 62 | 47 | 0.0 | 4.0 | 0.00 | 0.12 | 0.12 | 88 | 1009.8 |
| 20260507021530 | 63 | 98 | 0.0 | 4.0 | 0.00 | 0.12 | 0.12 | 89 | 1009.8 |
| 20260507021010 | 63 | 53 | 0.0 | 3.0 | 0.00 | 0.12 | 0.12 | 89 | 1009.8 |
| 20260507020511 | 63 | 49 | 0.0 | 3.0 | 0.00 | 0.12 | 0.12 | 89 | 1009.6 |
| 20260507020021 | 63 | 57 | 0.0 | 0.0 | 0.00 | 0.12 | 0.12 | 88 | 1009.7 |
| 20260507015504 | 63 | 57 | 0.0 | 0.0 | 0.00 | 0.12 | 0.12 | 88 | 1009.5 |
| 20260507015005 | 63 | 57 | 0.0 | 0.0 | 0.00 | 0.12 | 0.12 | 88 | 1009.6 |
| 20260507014514 | 63 | 56 | 0.0 | 2.0 | 0.00 | 0.12 | 0.12 | 88 | 1009.5 |
| 20260507014006 | 63 | 56 | 0.0 | 2.0 | 0.00 | 0.12 | 0.12 | 88 | 1009.5 |
| 20260507013507 | 64 | 49 | 0.0 | 3.0 | 0.00 | 0.12 | 0.12 | 88 | 1009.1 |
| 20260507013022 | 64 | 42 | 0.0 | 3.0 | 0.00 | 0.12 | 0.12 | 88 | 1009.1 |
| 20260507012503 | 64 | 83 | 0.0 | 4.0 | 0.00 | 0.12 | 0.12 | 89 | 1009.5 |
| 20260507012009 | 64 | 96 | 0.0 | 4.0 | 0.00 | 0.12 | 0.12 | 89 | 1009.8 |
| 20260507011526 | 64 | 43 | 0.0 | 4.0 | 0.00 | 0.12 | 0.12 | 90 | 1009.8 |
| 20260507011006 | 64 | 42 | 1.0 | 4.0 | 0.00 | 0.12 | 0.12 | 91 | 1009.9 |
| 20260507010508 | 65 | 155 | 0.0 | 4.0 | 0.00 | 0.12 | 0.12 | 91 | 1009.9 |
| 20260507010036 | 65 | 237 | 0.0 | 0.0 | 0.00 | 0.12 | 0.12 | 91 | 1009.7 |
| 20260507005510 | 65 | 237 | 0.0 | 2.0 | 0.00 | 0.12 | 0.12 | 91 | 1009.6 |
| 20260507005003 | 65 | 236 | 0.0 | 2.0 | 0.00 | 0.12 | 0.12 | 91 | 1009.6 |
| 20260507004521 | 65 | 250 | 0.0 | 0.0 | 0.00 | 0.12 | 0.12 | 91 | 1009.6 |
| 20260507004007 | 65 | 250 | 0.0 | 0.0 | 0.00 | 0.12 | 0.12 | 90 | 1008.9 |
| 20260507003507 | 65 | 250 | 0.0 | 0.0 | 0.00 | 0.12 | 0.12 | 90 | 1009.3 |
| 20260507003019 | 66 | 250 | 0.0 | 0.0 | 0.00 | 0.12 | 0.12 | 90 | 1009.2 |
| 20260507002507 | 66 | 250 | 0.0 | 0.0 | 0.00 | 0.12 | 0.12 | 90 | 1009.3 |
| 20260507002010 | 66 | 250 | 0.0 | 0.0 | 0.00 | 0.12 | 0.12 | 90 | 1009.0 |
| 20260507001518 | 66 | 250 | 0.0 | 0.0 | 0.00 | 0.12 | 0.12 | 89 | 1009.0 |
| 20260507001006 | 66 | 250 | 0.0 | 0.0 | 0.00 | 0.12 | 0.12 | 89 | 1008.7 |
| 20260507000509 | 66 | 250 | 0.0 | 0.0 | 0.00 | 0.12 | 0.12 | 89 | 1008.8 |
| 20260507000032 | 67 | 250 | 0.0 | 0.0 | 0.00 | 0.12 | 0.12 | 88 | 1008.8 |
| 20260506235509 | 67 | 250 | 0.0 | 0.0 | 0.00 | 0.12 | 0.12 | 88 | 1008.7 |
| 20260506235006 | 67 | 250 | 0.0 | 0.0 | 0.00 | 0.12 | 0.12 | 87 | 1008.7 |
| 20260506234528 | 67 | 250 | 0.0 | 0.0 | 0.00 | 0.12 | 0.12 | 87 | 1008.9 |
| 20260506234007 | 67 | 250 | 0.0 | 0.0 | 0.00 | 0.12 | 0.12 | 86 | 1008.7 |
| 20260506233507 | 67 | 250 | 0.0 | 0.0 | 0.00 | 0.12 | 0.12 | 85 | 1008.7 |
| 20260506233018 | 67 | 250 | 0.0 | 0.0 | 0.00 | 0.12 | 0.12 | 84 | 1008.2 |
| 20260506232506 | 67 | 250 | 0.0 | 0.0 | 0.00 | 0.12 | 0.12 | 84 | 1008.2 |
| 20260506232007 | 67 | 250 | 0.0 | 0.0 | 0.00 | 0.12 | 0.12 | 84 | 1008.1 |
| 20260506231522 | 68 | 250 | 0.0 | 0.0 | 0.00 | 0.12 | 0.12 | 84 | 1008.1 |
| 20260506231007 | 68 | 251 | 0.0 | 0.0 | 0.00 | 0.12 | 0.12 | 83 | 1008.0 |
| 20260506230507 | 68 | 251 | 0.0 | 2.0 | 0.00 | 0.12 | 0.12 | 83 | 1007.9 |
| 20260506230028 | 68 | 251 | 0.0 | 5.0 | 0.00 | 0.12 | 0.12 | 83 | 1007.9 |
| 20260506225506 | 68 | 250 | 0.0 | 5.0 | 0.00 | 0.12 | 0.12 | 83 | 1008.0 |
| 20260506225009 | 68 | 254 | 0.0 | 0.0 | 0.00 | 0.12 | 0.12 | 82 | 1008.0 |
| 20260506224521 | 68 | 251 | 0.0 | 3.0 | 0.00 | 0.12 | 0.12 | 81 | 1008.0 |
| 20260506224008 | 68 | 251 | 0.0 | 6.0 | 0.00 | 0.12 | 0.12 | 82 | 1008.0 |
| 20260506223512 | 68 | 153 | 0.0 | 7.0 | 0.00 | 0.12 | 0.12 | 80 | 1007.9 |
| 20260506223015 | 68 | 182 | 0.0 | 7.0 | 0.00 | 0.12 | 0.12 | 81 | 1007.8 |
| 20260506222506 | 68 | 338 | 0.0 | 3.0 | 0.00 | 0.12 | 0.12 | 81 | 1007.8 |
| 20260506222009 | 68 | 194 | 0.0 | 5.0 | 0.00 | 0.12 | 0.12 | 81 | 1007.9 |
| 20260506221520 | 68 | 195 | 0.0 | 5.0 | 0.00 | 0.12 | 0.12 | 82 | 1007.9 |
| 20260506221004 | 68 | 181 | 0.0 | 2.0 | 0.00 | 0.12 | 0.12 | 82 | 1007.9 |
| 20260506220508 | 68 | 244 | 0.0 | 4.0 | 0.00 | 0.12 | 0.12 | 82 | 1007.8 |
| 20260506220002 | 68 | 232 | 0.0 | 4.0 | 0.00 | 0.12 | 0.12 | 81 | 1007.8 |
| 20260506215502 | 68 | 226 | 0.0 | 10.0 | 0.00 | 0.12 | 0.12 | 81 | 1007.8 |
| 20260506215002 | 68 | 231 | 2.0 | 10.0 | 0.00 | 0.12 | 0.12 | 81 | 1007.7 |
| 20260506214505 | 68 | 148 | 0.0 | 6.0 | 0.00 | 0.12 | 0.12 | 82 | 1007.8 |
| 20260506214000 | 68 | 132 | 1.0 | 4.0 | 0.00 | 0.12 | 0.12 | 82 | 1007.8 |
| 20260506213507 | 68 | 210 | 0.0 | 9.0 | 0.00 | 0.12 | 0.12 | 82 | 1007.8 |
| 20260506213004 | 68 | 173 | 0.0 | 9.0 | 0.00 | 0.12 | 0.12 | 82 | 1007.8 |
| 20260506212505 | 68 | 284 | 1.0 | 5.0 | 0.00 | 0.12 | 0.12 | 82 | 1007.9 |
| 20260506212004 | 68 | 161 | 0.0 | 5.0 | 0.00 | 0.12 | 0.12 | 83 | 1007.7 |
| 20260506211505 | 68 | 156 | 0.0 | 12.0 | 0.00 | 0.12 | 0.12 | 82 | 1007.7 |
| 20260506211004 | 68 | 199 | 2.0 | 12.0 | 0.00 | 0.12 | 0.12 | 81 | 1007.7 |
| 20260506210504 | 68 | 237 | 2.0 | 10.0 | 0.00 | 0.12 | 0.12 | 81 | 1007.7 |
| 20260506210031 | 68 | 210 | 1.0 | 10.0 | 0.00 | 0.12 | 0.12 | 81 | 1007.7 |
| 20260506205503 | 68 | 141 | 1.0 | 10.0 | 0.00 | 0.12 | 0.12 | 81 | 1007.7 |
| 20260506205000 | 68 | 122 | 1.0 | 10.0 | 0.00 | 0.12 | 0.12 | 81 | 1007.6 |
| 20260506204512 | 68 | 205 | 2.0 | 6.0 | 0.00 | 0.12 | 0.12 | 82 | 1007.6 |
| 20260506204002 | 68 | 150 | 1.0 | 7.0 | 0.00 | 0.12 | 0.12 | 83 | 1007.4 |
| 20260506203502 | 68 | 149 | 0.0 | 8.0 | 0.00 | 0.12 | 0.12 | 83 | 1007.4 |
| 20260506203007 | 68 | 223 | 2.0 | 9.0 | 0.00 | 0.12 | 0.12 | 82 | 1007.4 |
| 20260506202506 | 68 | 221 | 1.0 | 9.0 | 0.00 | 0.12 | 0.12 | 82 | 1007.4 |
| 20260506202002 | 68 | 197 | 0.0 | 6.0 | 0.00 | 0.12 | 0.12 | 82 | 1007.5 |
| 20260506201514 | 68 | 166 | 1.0 | 6.0 | 0.00 | 0.12 | 0.12 | 82 | 1007.6 |
| 20260506201006 | 68 | 156 | 0.0 | 7.0 | 0.00 | 0.12 | 0.12 | 83 | 1007.6 |
| 20260506200504 | 68 | 142 | 0.0 | 9.0 | 0.00 | 0.12 | 0.12 | 82 | 1007.6 |
| 20260506200011 | 68 | 127 | 1.0 | 9.0 | 0.00 | 0.12 | 0.12 | 83 | 1007.6 |
| 20260506195506 | 68 | 169 | 0.0 | 8.0 | 0.00 | 0.12 | 0.12 | 84 | 1007.7 |
| 20260506195010 | 67 | 232 | 1.0 | 13.0 | 0.00 | 0.12 | 0.12 | 84 | 1007.7 |
| 20260506194504 | 67 | 212 | 1.0 | 13.0 | 0.00 | 0.12 | 0.12 | 84 | 1007.7 |
| 20260506194003 | 67 | 162 | 1.0 | 9.0 | 0.00 | 0.12 | 0.12 | 83 | 1007.7 |
| 20260506193501 | 67 | 205 | 1.0 | 9.0 | 0.00 | 0.12 | 0.12 | 84 | 1007.7 |
| 20260506193009 | 67 | 121 | 1.0 | 12.0 | 0.00 | 0.12 | 0.12 | 84 | 1007.7 |
| 20260506192505 | 67 | 169 | 2.0 | 12.0 | 0.00 | 0.12 | 0.12 | 84 | 1007.7 |
| 20260506192004 | 66 | 236 | 1.0 | 8.0 | 0.00 | 0.12 | 0.12 | 84 | 1007.7 |
| 20260506191511 | 66 | 207 | 1.0 | 9.0 | 0.00 | 0.12 | 0.12 | 83 | 1007.8 |
| 20260506191001 | 66 | 146 | 1.0 | 9.0 | 0.00 | 0.12 | 0.12 | 85 | 1007.9 |
| 20260506190505 | 66 | 221 | 0.0 | 13.0 | 0.00 | 0.12 | 0.12 | 85 | 1008.0 |
| 20260506190019 | 65 | 140 | 4.0 | 13.0 | 0.00 | 0.12 | 0.12 | 85 | 1007.9 |
| 20260506185504 | 65 | 102 | 1.0 | 6.0 | 0.00 | 0.12 | 0.12 | 85 | 1007.9 |
| 20260506185003 | 65 | 164 | 0.0 | 8.0 | 0.00 | 0.12 | 0.12 | 86 | 1008.0 |
| 20260506184517 | 65 | 130 | 1.0 | 8.0 | 0.00 | 0.12 | 0.12 | 86 | 1007.9 |
| 20260506184007 | 65 | 216 | 0.0 | 7.0 | 0.00 | 0.12 | 0.12 | 86 | 1008.0 |
| 20260506183501 | 64 | 202 | 0.0 | 7.0 | 0.00 | 0.12 | 0.12 | 87 | 1008.2 |
| 20260506183010 | 64 | 163 | 0.0 | 7.0 | 0.00 | 0.12 | 0.12 | 86 | 1008.2 |
| 20260506182501 | 64 | 223 | 0.0 | 11.0 | 0.00 | 0.12 | 0.12 | 86 | 1008.3 |
| 20260506182007 | 64 | 224 | 1.0 | 11.0 | 0.00 | 0.12 | 0.12 | 86 | 1008.2 |
| 20260506181521 | 64 | 206 | 1.0 | 8.0 | 0.00 | 0.12 | 0.12 | 87 | 1008.3 |
| 20260506181004 | 64 | 213 | 0.0 | 7.0 | 0.00 | 0.12 | 0.12 | 87 | 1008.5 |
| 20260506180505 | 64 | 207 | 1.0 | 7.0 | 0.00 | 0.12 | 0.12 | 87 | 1008.6 |
| 20260506180008 | 64 | 197 | 0.0 | 5.0 | 0.00 | 0.12 | 0.12 | 87 | 1008.5 |
| 20260506175503 | 64 | 208 | 0.0 | 5.0 | 0.00 | 0.12 | 0.12 | 87 | 1008.6 |
| 20260506175006 | 63 | 221 | 1.0 | 7.0 | 0.00 | 0.12 | 0.12 | 87 | 1008.6 |
| 20260506174519 | 63 | 215 | 0.0 | 7.0 | 0.00 | 0.12 | 0.12 | 88 | 1008.6 |
| 20260506174006 | 63 | 225 | 2.0 | 9.0 | 0.00 | 0.12 | 0.12 | 87 | 1008.7 |
| 20260506173506 | 63 | 196 | 1.0 | 11.0 | 0.00 | 0.12 | 0.12 | 89 | 1008.9 |
| 20260506173042 | 63 | 165 | 1.0 | 11.0 | 0.00 | 0.12 | 0.12 | 89 | 1008.8 |
| 20260506172507 | 63 | 231 | 0.0 | 8.0 | 0.00 | 0.12 | 0.12 | 88 | 1008.8 |
| 20260506172005 | 63 | 192 | 0.0 | 9.0 | 0.00 | 0.12 | 0.12 | 89 | 1009.0 |
| 20260506171520 | 63 | 221 | 2.0 | 9.0 | 0.00 | 0.12 | 0.12 | 88 | 1009.0 |
| 20260506171004 | 63 | 213 | 1.0 | 6.0 | 0.00 | 0.12 | 0.12 | 89 | 1008.9 |
| 20260506170504 | 62 | 32 | 0.0 | 10.0 | 0.00 | 0.12 | 0.12 | 90 | 1009.1 |
| 20260506170011 | 62 | 193 | 0.0 | 10.0 | 0.00 | 0.12 | 0.12 | 89 | 1009.1 |
| 20260506165506 | 62 | 240 | 1.0 | 9.0 | 0.00 | 0.12 | 0.12 | 90 | 1009.1 |
| 20260506165004 | 62 | 198 | 1.0 | 7.0 | 0.00 | 0.12 | 0.12 | 90 | 1008.9 |
| 20260506164513 | 62 | 173 | 1.0 | 7.0 | 0.00 | 0.12 | 0.12 | 91 | 1009.1 |
| 20260506164006 | 62 | 179 | 0.0 | 14.0 | 0.00 | 0.12 | 0.12 | 91 | 1009.1 |
| 20260506163504 | 62 | 221 | 1.0 | 14.0 | 0.00 | 0.12 | 0.12 | 91 | 1008.9 |
| 20260506163015 | 62 | 202 | 0.0 | 8.0 | 0.00 | 0.12 | 0.12 | 92 | 1008.9 |
| 20260506162508 | 61 | 188 | 0.0 | 11.0 | 0.00 | 0.12 | 0.12 | 92 | 1009.2 |
| 20260506162007 | 61 | 252 | 1.0 | 11.0 | 0.00 | 0.12 | 0.12 | 92 | 1009.2 |
| 20260506161524 | 61 | 200 | 1.0 | 9.0 | 0.00 | 0.12 | 0.12 | 92 | 1009.0 |
| 20260506161006 | 61 | 154 | 2.0 | 8.0 | 0.00 | 0.12 | 0.12 | 93 | 1009.0 |
| 20260506160507 | 60 | 202 | 0.0 | 12.0 | 0.00 | 0.12 | 0.12 | 92 | 1009.2 |
| 20260506160010 | 60 | 114 | 2.0 | 12.0 | 0.01 | 0.12 | 0.12 | 92 | 1009.3 |
| 20260506155503 | 60 | 159 | 0.0 | 10.0 | 0.01 | 0.12 | 0.12 | 92 | 1009.2 |
| 20260506155003 | 60 | 210 | 0.0 | 10.0 | 0.01 | 0.12 | 0.12 | 93 | 1009.3 |
| 20260506154515 | 60 | 209 | 0.0 | 7.0 | 0.01 | 0.12 | 0.12 | 93 | 1009.2 |
| 20260506154004 | 60 | 163 | 0.0 | 11.0 | 0.01 | 0.12 | 0.12 | 93 | 1009.2 |
| 20260506153504 | 60 | 173 | 3.0 | 12.0 | 0.02 | 0.12 | 0.12 | 93 | 1009.2 |
| 20260506153023 | 60 | 150 | 2.0 | 12.0 | 0.03 | 0.12 | 0.12 | 93 | 1009.2 |
| 20260506152506 | 60 | 292 | 0.0 | 10.0 | 0.03 | 0.12 | 0.12 | 93 | 1009.2 |